Total_Precipitation_Accumulation
0.22 0.18 0.18 0.12 0.17 0.24 0.32 0.34 0.27 0.30 0.44 0.23 0.37 0.38 0.36 0.44 0.59 1.29 0.90 0.30 0.25 0.41 0.38 0.15 0.29 0.34 0.34 0.24 0.38 0.50 0.66 0.66 0.64 0.55 0.40 0.67 0.52 0.67 0.78 0.68 1.20 1.27 1.19 1.18 1.17 1.14 1.12 0.40 0.70 0.38 0.41 0.56 0.27 0.15 0.07 0.09 0.16 0.09 0.62 0.07 0.38 0.13 0.36 0.53 0.35 0.32 0.31 0.26 0.30 0.24 0.14 0.17 0.22 0.24 0.06 0.13 0.54 0.29 0.47 0.58 0.72 0.43 0.59 0.46 0.40 0.34 1.10
0.25 0.18 0.18 0.22 0.19 0.31 0.31 0.53 0.25 0.15 0.31 1.06 0.48 0.40 0.46 0.68 2.19 1.10 0.93 0.44 0.46 0.47 0.43 0.33 0.19 0.13 0.13 0.22 0.29 0.27 0.67 0.75 0.68 0.60 0.58 0.91 0.67 0.70 0.56 0.39 1.04 1.02 1.03 1.20 1.35 1.12 1.83 0.44 0.42 0.47 0.21 0.71 0.12 0.08 0.16 0.04 0.41 0.15 0.57 0.54 0.26 0.63 0.62 0.35 0.82 0.67 0.81 0.63 0.42 0.51 0.47 0.22 0.23 0.34 0.26 0.07 0.11 0.13 0.19 0.11 0.28 0.18 0.40 0.49 0.53 0.43 0.98
0.23 0.21 0.24 0.15 0.17 0.30 0.33 0.23 0.20 0.15 0.26 0.48 0.63 0.63 0.61 1.08 1.47 1.39 1.04 0.55 0.51 0.77 0.54 0.42 0.22 0.30 0.22 0.24 0.27 0.44 0.53 0.59 0.61 0.66 0.74 0.76 0.83 0.67 0.47 0.32 0.71 1.39 1.16 1.22 0.83 0.91 1.52 1.12 0.37 0.45 0.48 0.80 0.03 0.03 0.03 0.06 0.24 0.12 0.13 0.24 0.26 0.44 0.97 0.67 1.08 1.03 1.16 1.20 1.37 1.55 1.35 0.80 0.73 0.31 0.22 0.25 0.18 0.45 0.39 0.64 0.61 0.30 0.35 0.28 0.45 0.99 0.73
0.21 0.25 0.15 0.25 0.24 0.26 0.18 0.14 0.20 0.12 0.25 0.35 0.46 0.62 0.69 1.26 1.65 1.13 1.11 1.32 1.14 0.21 0.37 0.35 0.65 0.34 0.32 0.27 0.31 0.35 0.64 0.45 0.49 0.50 0.78 0.59 0.77 0.55 0.39 0.28 0.32 0.76 0.93 1.26 1.17 1.04 0.46 0.94 0.95 0.74 0.74 0.35 0.09 0.02 0.06 0.17 0.13 0.14 0.11 0.32 0.51 0.82 0.59 0.58 0.59 0.93 1.31 1.26 0.99 0.83 0.66 0.93 0.95 0.78 0.45 0.43 0.46 0.28 0.25 0.33 0.41 0.71 0.67 0.34 0.70 0.53 0.78
0.19 0.16 0.18 0.14 0.11 0.14 0.13 0.14 0.13 0.15 0.17 0.37 0.74 0.52 0.80 1.05 1.49 1.07 0.89 0.48 0.61 0.70 0.33 0.39 0.27 0.46 0.54 0.72 0.37 0.48 0.45 0.53 0.51 0.44 0.99 0.59 0.66 0.40 0.73 0.54 0.72 0.74 0.85 0.92 1.11 0.85 0.59 0.48 0.66 0.81 0.84 0.50 0.24 0.03 0.14 0.19 0.12 0.09 0.28 0.32 0.66 0.84 0.84 0.55 0.69 1.00 0.92 0.83 0.80 0.90 0.77 0.87 0.63 0.58 0.74 0.58 0.35 0.30 0.42 0.37 0.59 0.74 0.49 0.64 0.73 0.52 0.22
0.25 0.18 0.15 0.13 0.18 0.18 0.19 0.30 0.27 0.15 0.17 0.19 0.54 0.71 0.65 1.34 1.77 1.33 1.13 0.93 0.57 0.58 0.99 0.32 0.73 0.26 0.38 0.69 0.33 0.47 0.50 0.53 0.96 0.74 0.78 0.97 0.42 0.66 0.44 0.43 0.44 0.59 0.95 1.09 1.25 1.21 0.73 0.61 0.42 0.72 0.79 0.37 0.50 0.58 0.17 0.18 0.13 0.10 0.38 0.38 0.64 1.37 0.85 0.81 0.83 1.04 0.74 0.72 0.78 0.85 1.06 0.90 0.85 0.86 0.83 0.88 0.75 0.63 0.68 0.36 0.36 0.63 0.56 0.70 0.78 0.82 0.46
0.29 0.22 0.18 0.15 0.20 0.18 0.19 0.17 0.19 0.14 0.15 0.21 0.59 0.60 0.46 1.57 1.54 1.49 0.50 0.85 1.02 0.67 0.59 0.39 0.38 0.66 0.43 0.72 0.39 0.53 0.40 0.61 0.80 1.50 1.15 0.91 0.75 0.49 0.94 0.57 0.49 0.51 0.57 1.11 1.21 1.05 1.44 0.75 0.96 0.77 0.79 0.60 0.64 0.82 0.37 0.31 0.15 0.22 0.31 0.54 0.68 0.87 1.00 1.14 0.86 1.10 1.00 0.96 0.59 0.59 0.92 0.82 0.77 0.69 0.71 0.66 0.75 0.82 0.80 0.62 0.62 0.75 0.65 0.47 0.56 0.51 0.69
0.21 0.22 0.19 0.19 0.19 0.20 0.22 0.21 0.27 0.12 0.22 0.27 0.46 0.53 1.36 1.64 2.46 1.63 0.80 0.57 0.55 0.48 0.45 0.64 0.63 0.61 0.33 0.57 0.50 0.53 0.49 0.60 0.59 0.91 1.15 1.01 0.62 0.54 0.81 0.84 0.54 0.53 0.50 0.69 1.18 1.22 1.47 1.53 1.16 0.90 0.49 0.68 0.43 0.90 0.59 1.00 0.39 0.24 0.56 0.54 1.12 0.78 1.08 0.65 1.05 1.51 1.40 1.08 0.49 0.48 0.80 0.80 0.75 0.55 0.75 0.63 0.88 0.74 0.73 0.86 0.92 0.93 0.75 0.45 0.50 0.59 0.95
0.34 0.25 0.20 0.18 0.25 0.23 0.20 0.28 0.25 0.21 0.33 0.59 0.45 0.82 1.04 1.58 1.83 1.99 1.30 0.77 0.77 0.67 0.39 0.51 0.74 0.60 0.52 0.58 0.52 0.36 0.48 0.65 0.75 0.97 0.56 1.08 0.92 0.66 0.85 0.86 1.15 0.67 0.67 0.80 1.07 1.27 1.02 1.11 1.03 0.41 0.83 1.10 0.65 0.99 0.77 0.33 0.50 0.36 0.53 0.62 1.31 0.68 1.30 0.85 1.41 1.34 1.09 0.80 0.55 0.57 0.64 1.03 0.78 0.70 0.60 0.64 0.83 0.96 0.58 0.84 0.80 1.35 1.06 0.91 0.76 0.64 0.70
0.26 0.23 0.21 0.26 0.23 0.22 0.25 0.33 0.27 0.21 0.38 0.81 0.54 0.74 1.18 1.29 0.91 1.20 1.60 0.84 0.34 0.49 0.26 0.51 0.48 0.91 0.70 0.52 0.46 0.63 0.30 0.33 0.45 0.59 0.29 0.65 0.82 0.74 0.80 0.90 1.17 0.99 1.09 1.11 0.80 0.93 0.85 0.65 0.88 0.31 0.48 0.29 0.93 0.55 0.74 0.89 1.17 0.85 0.66 0.98 1.29 1.13 0.93 0.97 1.14 1.50 0.95 1.16 0.48 0.84 0.92 1.21 1.42 1.67 0.88 0.71 0.64 0.70 0.50 0.53 0.55 0.67 1.56 1.93 1.28 0.97 0.82
0.20 0.22 0.19 0.23 0.28 0.19 0.25 0.36 0.32 0.43 0.64 0.93 0.89 0.81 0.89 1.43 1.36 0.75 0.71 0.67 0.23 0.43 0.43 0.46 0.43 0.91 0.59 0.63 0.56 0.32 0.37 0.42 0.59 0.97 0.74 0.37 0.71 0.63 0.73 0.90 1.06 1.13 1.07 1.11 0.67 0.86 0.72 0.78 0.30 0.17 0.24 0.21 0.57 0.44 0.69 0.39 0.38 0.84 1.17 0.95 0.67 0.67 0.96 1.18 1.51 2.26 1.27 0.97 1.41 0.96 1.21 1.68 1.56 1.33 0.98 0.76 1.01 0.72 0.77 0.66 0.62 0.78 1.20 2.04 1.41 1.29 1.22
0.19 0.18 0.17 0.16 0.21 0.27 0.25 0.37 0.38 0.42 0.55 1.17 1.13 0.92 1.31 1.31 0.94 1.22 0.94 0.57 0.27 0.37 0.53 0.44 0.36 0.32 0.43 0.23 0.52 0.53 0.50 0.49 0.69 0.65 1.23 0.66 0.73 0.58 0.59 0.82 0.93 1.35 0.84 0.81 0.66 0.67 0.61 0.56 0.42 0.21 0.18 0.45 0.52 0.48 0.36 0.39 0.69 0.67 0.68 0.95 0.90 0.82 1.06 1.22 1.71 1.65 1.52 1.48 1.29 1.55 1.65 1.39 1.82 1.16 0.92 0.58 0.71 0.47 0.48 0.51 0.57 0.80 0.88 0.96 1.18 1.31 1.08
0.28 0.25 0.19 0.18 0.19 0.20 0.34 0.32 0.38 0.34 0.38 0.95 0.96 1.27 1.23 0.99 1.64 1.31 1.18 1.24 0.60 0.51 0.63 0.54 0.24 0.28 0.39 0.43 0.44 0.39 0.37 0.44 0.52 0.63 0.74 0.72 0.74 0.41 0.60 0.65 0.79 0.68 0.32 0.66 0.34 0.49 1.20 1.43 1.12 0.59 0.55 0.42 0.51 0.51 0.45 0.56 0.55 0.49 0.66 0.65 0.79 0.65 0.80 1.28 1.07 0.97 1.01 1.11 1.61 2.29 1.60 1.59 1.26 1.36 1.17 0.93 0.84 0.80 0.79 1.10 0.54 0.50 0.84 1.19 1.23 1.76 1.49
0.31 0.32 0.26 0.29 0.32 0.35 0.30 0.38 0.34 0.30 0.40 0.73 1.01 1.02 1.26 1.33 1.65 1.13 1.12 1.08 0.60 0.67 0.94 0.59 0.31 0.42 0.48 0.61 0.68 0.56 0.43 0.55 0.53 0.48 0.65 0.60 0.59 0.84 0.50 0.48 0.36 0.19 0.35 0.31 0.52 0.80 0.91 0.88 1.04 0.96 0.95 0.86 1.41 1.10 0.60 0.92 0.76 0.65 0.71 0.71 0.55 0.95 1.32 1.13 1.58 1.08 2.02 1.17 1.42 1.04 1.31 1.30 1.27 1.33 1.61 1.39 1.91 1.50 1.66 2.04 1.17 0.74 1.02 1.61 2.18 1.98 1.74
0.43 0.35 0.35 0.34 0.50 0.62 0.47 0.40 0.36 0.31 0.37 0.55 0.89 1.18 1.59 1.51 1.71 1.87 1.48 2.37 1.37 1.01 0.70 0.83 0.52 0.71 0.84 0.67 0.63 0.62 0.61 0.57 0.62 0.60 0.41 0.52 0.96 0.86 0.72 0.26 0.09 0.25 0.42 0.66 0.93 0.87 0.93 1.16 1.13 1.14 1.06 1.21 1.45 1.12 0.79 0.86 0.36 0.80 0.83 0.60 0.61 0.76 1.55 1.73 1.86 1.45 0.96 1.75 2.06 1.40 1.37 1.45 1.07 0.96 1.24 0.94 1.03 1.08 1.12 1.30 1.63 1.34 1.99 2.22 2.73 2.97 2.28
0.46 0.51 0.52 0.53 0.54 0.67 0.65 0.56 0.54 0.42 0.60 0.77 1.28 1.75 1.59 1.36 1.35 1.99 2.23 2.48 2.30 1.51 0.69 0.69 0.71 1.06 0.88 0.73 0.76 0.87 0.90 0.74 0.68 0.58 0.63 0.63 0.56 0.82 0.66 0.46 0.20 0.44 0.48 0.60 1.66 1.28 1.13 1.10 1.07 1.16 1.34 1.20 1.07 1.36 0.78 0.83 0.72 0.54 0.56 0.56 0.84 0.82 1.05 2.31 1.88 2.62 1.36 1.62 1.86 1.81 1.60 1.40 1.56 1.65 0.97 1.05 0.77 0.87 1.31 1.20 1.31 1.55 2.09 2.84 2.88 3.71 3.53
0.53 0.50 0.55 0.51 0.50 0.67 0.59 0.52 0.39 0.46 0.65 1.02 1.43 1.75 1.23 0.92 1.80 2.10 2.75 2.93 2.94 2.28 0.91 0.86 0.92 1.77 1.06 0.91 0.70 0.74 0.78 0.94 0.85 0.73 0.66 0.64 0.63 0.65 0.75 0.34 0.61 0.49 1.23 1.35 1.34 1.03 1.16 1.13 1.64 1.49 1.32 1.10 1.18 0.73 0.70 0.90 1.14 1.02 0.83 0.92 1.17 1.79 1.56 1.11 1.51 1.31 1.19 1.51 2.35 2.07 1.16 1.75 1.60 1.62 1.20 1.16 1.39 0.86 1.42 2.15 1.81 2.15 2.62 3.21 3.11 3.33 3.41
0.59 0.62 0.76 0.61 0.60 0.55 0.43 0.51 0.59 0.57 0.69 0.77 1.64 1.94 0.92 1.18 1.59 1.96 2.74 2.60 2.53 1.56 0.89 0.67 1.12 1.12 1.07 0.83 0.84 0.58 0.61 0.65 0.82 0.65 0.69 0.42 0.53 0.62 0.68 0.54 1.22 0.67 0.52 1.33 1.41 0.85 1.08 1.05 1.52 1.49 1.55 0.97 1.53 1.46 1.50 1.08 0.96 0.83 1.22 1.39 2.03 0.91 1.45 1.41 1.17 1.30 1.54 1.36 1.74 1.53 1.23 1.32 1.84 1.32 0.93 1.10 1.34 1.72 1.87 2.22 2.45 2.52 2.68 2.59 2.59 3.43 3.83
0.66 0.66 0.71 0.77 0.72 0.61 0.59 0.64 0.58 0.70 0.74 0.84 1.48 1.92 1.11 0.98 1.40 2.11 2.65 2.30 2.90 2.13 1.28 0.83 0.89 1.17 0.75 0.66 0.61 0.65 0.52 0.87 0.78 0.95 0.74 0.70 0.53 0.52 0.74 0.70 0.54 2.20 1.61 1.42 2.03 1.80 1.26 1.47 1.15 1.74 1.87 1.69 2.08 1.56 1.39 1.38 1.27 1.20 0.89 1.45 1.36 0.92 1.42 1.02 1.01 1.43 1.50 1.92 2.35 1.59 1.42 1.41 1.27 1.12 0.71 1.09 1.26 1.75 2.37 2.10 1.58 2.40 2.22 2.29 2.12 3.29 3.67
0.86 0.72 0.70 0.67 0.75 0.78 0.76 0.84 0.74 0.75 0.74 1.07 1.83 1.90 1.01 0.87 1.11 1.59 2.44 2.56 1.98 1.88 1.25 0.87 0.94 0.86 0.82 1.01 0.96 0.86 0.78 0.85 0.68 0.80 0.99 1.13 0.82 0.70 1.13 1.14 0.79 0.73 0.95 1.19 1.37 1.72 1.40 1.57 1.56 2.02 2.10 2.06 2.02 1.69 1.65 1.14 0.96 1.43 1.31 1.43 1.53 1.65 1.74 1.08 0.81 1.49 1.52 1.50 2.09 2.57 2.35 2.96 1.16 1.54 1.62 1.70 2.25 2.69 2.13 1.86 1.68 1.98 2.34 1.89 2.23 2.78 3.36
0.87 0.89 0.76 0.81 0.78 0.84 0.91 0.82 0.93 1.04 0.99 1.14 1.28 1.74 1.31 0.83 1.03 1.08 1.49 2.63 2.57 2.04 1.13 0.65 0.65 0.77 0.84 0.84 0.73 0.80 1.01 1.26 1.37 1.36 1.12 1.12 1.40 1.54 1.88 1.53 1.70 1.44 1.24 1.30 1.39 1.32 1.40 1.57 1.65 1.72 1.98 2.25 2.87 2.84 2.04 1.43 1.22 0.99 1.10 2.25 1.84 2.99 1.73 1.19 1.00 1.58 2.26 2.00 2.13 2.44 2.86 2.30 1.38 1.69 2.76 2.08 2.19 1.89 1.95 1.86 1.87 1.46 1.85 2.63 2.79 2.32 2.51
0.79 0.79 0.83 0.84 0.83 0.93 0.99 0.89 0.90 1.21 1.12 1.15 1.35 2.43 1.60 0.85 0.87 0.82 1.12 2.80 2.42 1.67 0.86 0.58 0.67 0.68 0.54 0.72 0.82 0.83 0.84 0.95 0.84 1.11 1.44 1.46 1.15 1.55 1.49 1.41 1.47 1.72 1.84 1.58 1.65 1.18 1.39 1.84 2.20 1.71 1.85 2.18 2.32 1.91 2.32 2.23 1.66 1.36 1.68 1.80 2.98 1.40 2.39 2.39 2.24 1.77 2.37 1.93 2.20 2.04 1.71 2.05 1.86 1.87 1.84 1.84 1.89 1.50 1.44 1.51 1.28 1.87 1.95 1.76 1.72 1.81 1.97
0.79 0.83 1.01 0.90 0.88 1.00 0.90 0.95 1.08 1.03 1.03 0.98 1.63 2.62 1.42 0.97 0.99 0.81 1.52 2.15 1.90 1.87 0.95 0.60 0.49 0.39 0.44 0.30 0.20 0.41 0.70 0.39 0.50 1.01 0.63 1.13 1.60 1.36 1.62 1.79 2.12 1.34 1.90 2.00 2.42 2.08 2.00 1.88 1.94 1.96 2.19 2.00 2.38 2.30 1.94 1.75 1.99 1.65 1.77 1.82 2.85 2.16 2.31 2.58 1.29 1.58 1.65 1.40 1.59 1.61 1.56 1.39 1.30 1.89 2.15 1.74 1.49 1.41 1.23 1.25 1.44 1.49 2.05 1.96 2.54 1.71 1.67
0.68 0.79 0.87 1.01 0.92 1.03 1.13 1.22 1.10 1.03 1.03 1.18 1.35 2.31 1.52 1.06 0.97 1.63 1.62 2.05 2.08 1.54 0.90 0.59 0.74 0.55 0.34 0.20 0.12 0.16 0.24 0.35 0.31 0.40 0.54 1.08 1.16 0.91 1.00 1.33 1.09 1.37 1.59 1.40 1.64 2.61 2.34 1.92 1.93 2.54 2.04 1.53 1.98 2.14 2.66 2.75 1.35 2.00 1.83 1.48 1.60 1.59 1.95 1.89 1.55 1.41 1.66 1.43 1.93 2.12 2.11 1.47 1.41 1.58 1.54 1.13 1.12 1.05 1.24 1.44 1.60 1.74 2.03 2.06 1.61 1.73 1.09
0.93 0.88 0.89 1.04 0.98 0.96 1.10 1.17 1.11 1.08 1.12 1.21 1.51 1.42 2.08 1.86 1.49 1.55 2.35 2.16 1.65 1.38 1.08 0.53 0.39 0.33 0.21 0.19 0.27 0.39 0.26 0.22 0.18 0.23 0.37 0.56 0.70 0.95 1.42 1.43 0.86 1.15 1.43 1.24 1.73 1.72 1.44 1.76 1.85 2.04 1.73 1.59 1.90 2.07 1.56 2.16 2.04 1.79 2.09 1.89 2.15 2.38 2.14 2.33 1.43 1.85 1.98 1.80 2.21 1.80 1.57 1.10 1.14 1.50 1.75 1.37 1.03 0.82 0.79 1.27 1.49 1.56 1.41 1.54 1.35 1.47 1.33
0.97 1.05 1.04 0.87 0.97 1.00 1.03 1.00 1.05 1.16 1.15 1.41 1.84 2.04 2.11 1.39 1.21 1.55 2.44 1.88 2.18 2.14 1.88 0.91 0.42 0.29 0.17 0.15 0.17 0.13 0.14 0.23 0.17 0.25 0.29 0.54 0.79 0.81 0.58 0.45 0.51 0.61 0.96 0.87 1.37 1.42 1.45 1.37 1.03 1.44 1.68 1.47 1.43 1.57 1.65 1.38 2.51 2.13 2.23 2.64 2.08 2.52 1.88 2.32 2.35 2.57 2.17 1.42 1.15 1.12 1.15 1.31 1.17 1.37 1.37 1.69 1.51 1.14 0.88 0.92 1.42 1.75 1.75 1.51 1.32 1.28 1.36
0.87 0.83 1.09 1.08 0.96 1.01 1.03 1.07 1.09 1.08 1.28 1.43 2.54 1.90 1.70 1.84 1.23 1.73 1.93 1.63 2.03 2.32 1.57 1.08 0.49 0.31 0.20 0.17 0.11 0.12 0.11 0.16 0.19 0.21 0.23 0.37 0.54 0.46 0.43 0.42 0.71 0.86 0.98 1.25 1.10 1.35 1.61 1.42 1.40 1.40 1.10 1.44 1.31 1.58 1.36 1.56 1.54 1.50 1.45 1.68 2.21 2.18 2.37 2.24 2.25 1.91 2.27 2.98 2.56 1.19 2.20 2.17 1.51 1.27 1.41 1.49 1.24 1.30 0.97 0.82 1.12 1.26 1.78 2.00 1.49 1.44 0.89
0.97 0.98 0.98 1.22 1.18 1.15 1.27 1.19 1.31 1.19 1.32 1.77 2.26 1.88 1.81 2.21 1.48 1.51 1.85 1.83 2.44 1.66 1.36 0.89 0.69 0.62 0.50 0.27 0.15 0.11 0.11 0.12 0.17 0.22 0.23 0.25 0.24 0.28 0.42 0.51 0.58 0.87 0.92 1.35 1.25 1.24 1.55 1.60 1.32 0.63 0.81 0.99 1.11 1.14 0.99 1.11 1.17 1.05 1.06 1.27 1.40 2.23 2.83 3.31 3.15 2.85 2.84 2.64 2.16 2.29 1.99 1.64 1.89 1.49 1.19 1.26 1.21 1.23 1.85 1.87 1.53 1.42 1.39 1.37 1.53 1.83 1.44
0.96 0.98 1.07 1.05 1.26 1.27 1.23 1.37 1.43 1.39 1.65 2.55 3.14 2.84 2.53 1.92 1.55 2.08 1.47 1.71 2.38 2.22 1.80 1.10 0.82 0.67 0.56 0.55 0.15 0.11 0.10 0.13 0.19 0.28 0.37 0.36 0.50 0.44 0.43 0.46 0.64 0.69 0.92 1.02 0.91 0.73 0.88 1.08 1.15 0.96 1.13 1.09 1.54 1.39 1.25 1.04 0.74 0.75 0.83 1.06 0.99 1.15 1.72 1.95 2.13 2.20 1.87 1.83 1.97 1.75 1.77 2.20 2.01 1.77 1.41 1.24 1.14 1.24 1.61 1.76 2.17 2.22 1.73 1.25 1.16 1.70 1.51
1.21 1.18 1.33 1.24 1.31 1.54 1.41 1.70 1.73 1.96 2.40 3.43 3.42 3.95 3.49 2.46 1.37 1.32 1.13 1.30 2.22 2.60 2.53 2.13 1.36 0.62 0.37 0.25 0.23 0.23 0.24 0.20 0.21 0.22 0.27 0.30 0.50 0.57 0.40 0.48 0.71 0.66 0.97 1.04 0.95 0.99 0.58 0.73 0.97 0.89 1.13 0.77 1.43 1.65 0.98 1.28 0.89 0.79 0.60 0.57 0.50 0.92 0.88 1.13 1.19 1.61 2.12 1.36 1.34 1.61 1.57 1.48 1.19 0.87 1.21 1.10 1.02 1.47 1.47 1.29 1.70 2.91 2.70 2.12 2.26 1.30 0.96
1.33 1.27 1.31 1.36 1.30 1.51 1.71 1.60 1.80 2.21 3.45 3.50 4.09 3.71 3.06 1.84 1.42 0.91 1.09 1.22 2.00 2.60 3.00 1.90 1.34 0.70 0.39 0.25 0.20 0.19 0.18 0.27 0.25 0.25 0.25 0.33 0.36 0.54 0.67 0.58 0.81 0.73 1.27 0.99 1.09 0.65 0.68 0.84 0.79 0.82 1.17 0.51 1.46 1.59 1.13 1.02 0.94 0.93 0.42 0.51 0.61 0.83 0.63 0.63 0.73 0.87 0.82 0.94 1.27 1.39 1.24 1.15 1.03 0.82 0.74 0.99 0.78 0.98 1.51 2.16 1.37 1.58 2.11 1.72 1.43 1.09 1.21
1.33 1.49 1.37 1.43 1.38 1.45 1.67 1.73 1.98 2.84 3.43 3.19 2.88 2.18 1.58 1.54 2.02 1.11 1.13 1.68 3.04 3.49 3.51 2.93 2.07 1.36 0.62 0.30 0.18 0.11 0.14 0.17 0.24 0.33 0.40 0.39 0.55 0.32 0.56 0.55 0.85 0.75 0.76 0.83 0.79 1.04 0.82 0.53 0.43 0.38 0.70 0.56 0.76 1.27 1.15 1.06 0.66 0.53 0.42 0.35 0.64 0.42 0.46 0.62 0.70 0.88 1.02 0.94 0.91 1.22 1.28 0.90 0.67 0.75 0.56 0.46 0.67 0.60 0.70 0.94 1.31 2.04 2.19 2.27 1.54 1.86 1.78
1.58 1.47 1.74 1.62 1.55 1.61 1.69 1.92 2.08 3.29 2.96 2.27 1.36 1.20 1.08 1.11 0.94 1.35 0.95 2.03 2.99 3.50 2.78 2.37 1.95 1.45 0.78 0.44 0.26 0.11 0.11 0.21 0.36 0.34 0.72 0.40 0.50 0.43 0.83 0.53 0.78 0.90 1.08 1.37 1.25 0.88 0.50 0.43 0.21 0.57 0.35 0.61 0.80 0.80 0.95 0.79 0.69 0.43 0.31 0.30 0.22 0.45 0.59 0.64 0.81 0.68 0.38 0.38 0.61 1.18 1.19 0.78 0.58 0.55 1.01 0.70 0.49 0.50 0.60 0.55 0.70 1.02 1.55 1.84 1.35 1.20 0.62
1.66 1.61 1.65 2.01 1.82 1.96 2.06 2.16 2.84 3.56 4.05 4.20 3.18 1.85 1.12 0.72 1.00 1.16 2.33 2.39 3.31 3.58 3.14 2.31 2.27 1.16 0.66 0.46 0.39 0.72 0.18 0.55 0.56 0.42 0.50 0.60 0.48 0.50 0.61 0.66 1.09 1.05 1.18 0.70 0.62 0.56 0.50 0.62 0.40 0.37 0.58 0.59 0.59 0.96 0.50 0.46 0.16 0.13 0.20 0.28 0.14 0.31 0.21 0.38 0.38 0.60 0.51 0.74 0.62 0.73 0.86 0.95 0.77 0.33 0.50 0.60 0.50 0.48 0.45 0.31 0.42 0.67 0.60 0.96 0.83 0.55 0.59
2.05 1.96 1.75 1.85 2.13 2.36 2.74 3.63 4.51 3.83 3.70 2.99 2.05 1.78 1.33 0.84 0.77 1.39 2.12 2.51 2.77 3.38 2.59 2.01 0.99 1.09 0.58 0.34 0.28 0.42 0.27 0.26 0.79 0.59 0.37 0.71 0.43 0.56 0.84 0.57 1.40 0.84 1.20 0.67 0.81 0.39 0.43 0.35 0.30 0.68 0.66 0.16 0.70 0.72 0.24 0.32 0.13 0.12 0.19 0.15 0.20 0.40 0.19 0.22 0.41 0.56 0.54 0.63 0.43 0.37 0.47 0.60 0.67 0.65 0.42 0.39 0.30 0.20 0.19 0.14 0.25 0.29 0.32 0.42 0.48 0.41 0.49
2.16 2.23 2.36 2.43 3.10 4.21 5.01 6.04 3.93 4.08 3.30 2.36 1.60 1.06 0.95 1.12 0.97 1.52 2.17 3.09 2.56 2.68 1.83 1.21 0.92 0.61 0.38 0.58 0.32 0.51 0.11 0.31 0.45 0.61 0.43 1.05 0.86 0.61 0.75 0.66 1.25 0.61 0.51 0.53 0.57 0.39 0.47 0.42 0.41 0.74 0.24 0.47 0.33 0.24 0.24 0.09 0.11 0.16 0.17 0.23 0.29 0.30 0.49 0.42 0.43 0.32 0.36 0.46 0.44 0.41 0.42 0.67 0.86 0.57 0.48 0.51 0.66 0.65 0.30 0.15 0.16 0.30 0.25 0.14 0.22 0.27 0.38
2.96 3.08 3.42 5.26 5.84 6.85 5.52 4.68 3.71 2.31 2.24 1.20 1.63 1.58 1.58 1.59 2.82 3.33 4.01 4.10 3.77 2.51 2.60 1.73 1.13 0.57 0.35 0.57 0.51 0.74 0.39 0.68 0.50 0.72 1.08 0.56 0.79 1.08 0.93 1.11 0.71 0.90 1.27 0.69 0.29 0.35 0.26 0.22 0.44 0.39 0.38 0.32 0.27 0.16 0.09 0.08 0.17 0.18 0.25 0.27 0.32 0.42 0.39 0.67 0.50 0.36 0.63 0.55 0.70 0.46 0.51 0.44 0.29 0.19 0.41 0.40 0.22 0.35 0.19 0.21 0.29 0.25 0.22 0.19 0.24 0.60 0.56
3.08 4.07 5.66 6.62 5.89 5.47 4.92 3.59 2.72 1.92 0.98 1.34 1.46 2.58 4.36 4.21 5.43 5.43 5.71 4.29 4.24 3.60 2.64 1.83 1.25 0.43 0.28 0.43 0.72 0.46 0.09 0.54 0.68 0.81 0.82 0.85 0.80 1.13 0.83 0.88 0.83 0.76 0.99 0.51 0.27 0.29 0.36 0.69 0.85 0.49 0.18 0.14 0.13 0.14 0.27 0.17 0.15 0.25 0.27 0.46 0.51 0.54 0.43 0.54 0.82 0.80 0.79 0.60 0.49 0.52 0.51 0.47 0.31 0.33 0.29 0.26 0.21 0.28 0.23 0.18 0.17 0.18 0.22 0.25 0.32 0.39 0.39
4.85 5.97 5.88 5.23 3.95 3.29 2.35 2.53 1.60 1.36 1.41 2.42 2.81 3.06 4.87 3.48 3.34 4.18 3.63 2.43 3.42 2.80 1.75 1.53 1.22 0.37 0.49 0.36 0.35 0.44 0.16 0.74 0.71 1.01 1.00 2.63 0.66 1.62 1.06 1.13 1.29 0.48 1.15 0.59 0.38 0.11 0.77 0.55 0.40 0.28 0.22 0.41 0.53 0.30 0.11 0.10 0.22 0.26 0.53 0.69 0.52 0.75 0.61 0.66 0.61 0.69 0.86 0.78 0.76 0.72 0.71 0.93 0.77 0.43 0.24 0.27 0.33 0.30 0.22 0.21 0.32 0.32 0.31 0.49 0.45 0.45 0.46
6.01 5.72 4.89 3.96 2.63 2.05 1.89 1.64 1.50 2.51 3.29 3.91 3.76 2.48 4.28 3.41 1.91 2.67 1.89 1.67 1.55 0.79 1.09 0.95 0.36 0.26 0.17 0.40 0.34 0.71 0.16 0.30 0.65 0.63 0.49 0.64 0.83 1.04 3.10 0.68 2.67 1.15 1.27 0.59 0.48 0.21 0.36 0.50 0.43 0.34 0.37 0.42 0.36 0.17 0.14 0.37 0.34 0.46 0.65 0.77 0.76 0.80 0.86 0.72 0.79 0.67 0.77 0.59 0.45 0.44 0.51 0.53 0.62 0.61 0.54 0.48 0.64 0.57 0.41 0.45 0.77 0.75 0.50 0.37 0.37 0.41 0.67
4.77 3.91 3.10 2.49 2.05 1.90 1.87 2.88 3.60 3.84 3.32 3.78 4.10 3.09 3.13 3.82 1.68 1.38 1.41 1.06 0.72 0.55 0.26 0.29 0.28 0.31 0.57 0.43 0.64 0.83 0.80 0.16 0.84 0.98 0.73 1.06 2.13 0.78 0.72 0.69 2.24 0.85 0.67 0.48 0.42 0.24 0.44 0.36 0.42 0.41 0.43 0.36 0.20 0.24 0.50 0.65 0.50 0.39 0.81 0.90 0.76 0.83 0.76 0.84 1.15 0.85 0.78 0.74 0.61 0.57 0.54 0.69 0.52 0.51 0.53 0.68 0.54 0.55 0.96 1.10 0.86 0.53 0.35 0.36 0.53 0.48 0.75
2.79 2.60 2.61 2.24 2.28 2.84 4.46 4.42 5.34 4.73 3.80 3.78 3.02 3.53 1.90 1.62 1.43 1.17 0.75 0.69 0.82 0.26 0.37 0.18 0.53 0.42 0.52 0.41 0.55 0.43 0.69 0.62 0.87 0.89 0.73 0.94 0.89 0.56 0.68 0.46 0.91 0.66 0.51 0.16 0.39 0.76 0.49 0.49 0.35 0.67 0.51 0.30 0.18 0.40 0.50 0.68 0.73 0.64 0.88 1.02 1.03 1.22 1.07 0.97 0.93 0.55 0.43 0.59 0.62 0.76 0.62 0.54 0.55 0.85 0.66 0.62 0.57 0.44 0.87 0.93 0.64 0.52 0.39 0.38 0.50 0.73 0.85
2.77 2.95 3.73 3.99 4.36 4.38 4.41 5.13 4.25 3.16 4.89 4.14 2.68 2.94 2.08 1.56 1.12 0.81 0.80 0.21 0.43 0.19 0.41 0.09 0.28 0.15 0.69 0.34 1.30 1.24 1.01 0.91 0.68 0.97 0.77 1.08 1.72 0.68 0.96 1.02 0.82 0.65 0.34 0.14 0.22 0.75 0.52 0.39 0.39 0.56 0.28 0.32 0.20 0.26 0.28 0.50 0.71 1.06 0.89 0.74 0.71 0.84 0.70 0.64 0.56 0.54 0.53 0.51 0.56 0.64 0.71 0.69 1.10 0.83 0.82 0.71 0.59 0.80 0.60 0.56 0.50 0.55 0.46 0.45 0.54 0.78 1.02
4.56 4.64 4.30 4.35 4.32 5.74 3.04 5.26 4.07 2.10 2.65 2.25 1.40 1.33 1.16 0.82 1.01 0.31 0.34 0.36 0.21 0.26 0.39 0.25 0.57 0.22 0.89 0.42 0.67 0.92 0.54 0.83 0.56 1.15 1.09 1.44 1.12 1.52 1.04 1.12 0.65 0.81 0.51 0.48 0.48 0.52 0.50 0.60 0.39 0.36 0.35 0.34 0.33 0.41 0.51 0.86 1.09 0.92 1.08 0.77 0.76 0.63 0.79 0.61 0.62 0.65 0.54 0.55 0.68 1.08 0.75 0.74 0.66 0.55 0.61 0.65 0.45 0.64 0.71 0.47 0.33 0.31 0.36 0.44 0.61 0.70 0.88
5.62 5.88 4.85 4.46 4.04 6.06 2.20 5.24 3.70 1.52 1.61 1.03 0.46 0.47 0.31 0.27 0.29 0.24 0.31 0.78 0.18 0.37 0.38 0.24 0.37 0.28 0.65 1.25 0.62 1.04 0.51 1.57 1.41 0.66 1.60 1.13 0.99 0.82 0.80 0.77 0.66 0.90 0.60 0.61 0.62 0.51 0.36 0.40 0.28 0.21 0.47 0.77 0.94 0.95 0.90 0.74 1.28 0.96 0.84 0.50 0.64 0.94 0.84 0.95 0.93 0.86 0.90 0.88 0.88 1.01 1.56 1.08 0.79 0.92 0.78 0.72 0.60 0.51 0.65 0.80 0.57 0.32 0.36 0.53 0.70 0.63 0.94
4.32 4.56 3.62 3.79 4.82 4.07 2.05 2.96 2.55 1.21 0.50 0.39 0.25 0.22 0.23 0.23 0.31 0.28 0.38 0.16 0.24 0.29 0.37 0.36 0.72 0.62 0.94 1.11 0.74 1.73 0.67 0.93 1.45 0.96 0.93 1.25 0.99 0.93 0.51 0.70 0.37 0.65 0.56 0.55 0.41 0.59 0.39 0.24 0.39 0.66 0.93 1.25 0.81 0.82 0.95 0.52 0.68 0.70 0.59 0.61 0.69 0.87 1.06 1.10 0.94 0.96 1.21 1.22 1.15 1.23 1.17 0.99 0.94 1.07 1.03 0.86 0.70 0.62 0.70 0.66 0.57 0.59 0.75 0.58 0.59 0.80 0.71
3.91 2.89 2.79 2.14 2.51 1.94 1.01 1.30 0.71 0.36 0.26 0.22 0.27 0.19 0.23 0.24 0.24 0.34 0.41 0.17 0.34 0.67 0.43 0.79 0.84 0.91 1.16 1.10 0.91 0.87 0.87 0.99 1.04 1.57 0.59 1.18 1.07 0.89 1.21 0.74 1.08 0.63 0.44 0.32 0.25 0.26 0.34 0.61 0.81 1.15 1.48 0.92 0.83 0.81 0.90 0.77 0.50 0.61 0.57 0.82 0.94 1.15 1.16 1.27 1.12 1.24 1.42 1.23 1.12 0.94 0.81 0.81 0.77 0.83 0.72 0.82 0.71 0.81 0.71 0.63 0.65 0.58 0.60 0.67 0.71 0.47 0.62
4.09 2.82 2.32 2.65 1.83 1.03 0.81 0.50 0.29 0.26 0.19 0.25 0.31 0.29 0.40 0.33 0.31 0.40 0.46 0.29 0.33 0.47 0.61 0.60 1.21 1.28 0.98 2.66 0.65 1.75 1.79 1.77 0.93 1.65 0.82 0.96 1.01 0.73 0.94 0.71 0.54 0.42 0.33 0.25 0.28 0.34 0.43 0.74 0.72 0.86 0.80 0.91 0.77 0.86 0.73 0.62 0.71 0.68 0.91 1.24 1.27 1.21 1.13 0.93 0.91 1.13 0.98 1.02 1.02 0.95 0.98 1.07 0.88 0.61 0.50 0.61 0.63 0.66 0.84 0.89 0.87 0.83 0.69 0.69 0.45 0.46 0.40
2.68 2.53 1.93 1.40 1.03 0.63 0.37 0.37 0.43 0.52 0.46 0.44 0.36 0.19 0.34 0.41 0.42 0.46 0.43 0.62 0.72 0.87 0.97 0.78 1.45 1.02 1.73 1.62 1.38 1.52 1.39 1.71 1.04 1.84 1.06 1.00 0.85 0.72 0.60 0.40 0.26 0.21 0.40 0.21 0.48 0.59 0.73 0.66 0.51 0.77 0.74 0.72 0.74 0.70 1.11 0.66 0.64 1.39 1.17 1.33 1.44 1.05 0.98 0.96 1.29 1.49 1.34 1.11 1.29 0.96 0.98 0.82 1.19 0.80 0.75 0.82 0.98 0.72 0.56 0.46 0.60 0.56 0.69 0.62 0.46 0.43 0.50
2.87 2.51 1.28 1.14 0.73 0.49 0.49 0.69 0.57 0.69 0.50 0.51 0.64 0.77 0.65 0.80 0.74 0.50 0.43 0.43 0.60 0.85 1.27 1.42 1.60 1.32 2.69 1.29 1.78 1.14 1.44 1.65 0.81 1.56 1.00 0.91 0.57 0.58 0.36 0.23 0.22 0.25 0.63 0.53 0.78 0.67 0.74 0.63 0.64 0.94 0.84 0.85 0.68 0.72 0.90 0.71 1.07 1.46 1.31 1.24 1.19 1.20 1.76 1.22 1.19 1.58 1.26 1.36 1.34 1.01 0.80 0.76 0.75 0.73 0.63 0.57 0.43 0.29 0.26 0.33 0.44 0.52 0.42 0.45 0.52 0.60 0.85
2.55 2.53 1.59 0.73 0.67 0.94 0.61 0.74 0.72 0.68 0.63 0.87 0.77 0.71 0.82 0.92 0.84 0.88 0.80 0.99 0.91 1.03 1.47 1.52 1.59 1.38 2.20 1.50 1.70 1.47 1.10 0.77 0.90 0.74 0.62 0.65 0.72 0.58 0.49 0.34 0.46 0.32 0.69 0.56 0.93 1.11 0.64 0.57 0.90 0.91 0.60 0.84 0.75 0.77 0.63 0.53 0.90 1.38 1.24 1.22 1.20 1.45 1.00 0.92 0.87 1.03 0.86 1.01 0.98 0.77 0.71 0.61 0.61 0.53 0.42 0.29 0.27 0.26 0.32 0.38 0.41 0.46 0.60 0.65 0.66 0.64 0.61
2.11 1.87 1.69 0.75 0.45 1.06 0.70 0.98 0.85 0.71 0.73 0.89 0.83 0.93 0.40 0.78 0.63 0.91 0.76 0.80 1.55 0.89 0.96 0.85 1.04 1.66 1.28 1.23 0.98 0.68 1.34 1.22 0.99 0.76 0.51 0.39 0.27 0.42 0.51 0.34 0.51 0.49 0.57 0.62 0.42 0.34 0.41 0.73 0.62 0.57 0.58 0.53 0.46 0.72 0.52 0.43 0.87 1.17 0.79 1.02 1.14 1.07 0.89 0.88 0.59 0.59 0.66 0.66 0.60 0.61 0.61 0.54 0.54 0.40 0.35 0.32 0.28 0.33 0.43 0.55 0.54 0.52 0.43 0.43 0.39 0.35 0.30